DONNELLS (DON)

Elevation: 4835' · STANISLAUS R basin · Operator: US Bureau of Reclamation

Provisional data, subject to change.
Query executed Wednesday at 14:38:08   clock

Select a sensor type for a plot of data.
Note: Reservoir Flows are daily averages.

Earlier

Date STORAGE    RES CHG    OUTFLOW   
 AF   AF   CFS  
03/17/2014 15678 264 103
03/18/2014 15958 280 88
03/19/2014 16218 260 79
03/20/2014 16404 186 120
03/21/2014 16689 285 80
03/22/2014 16981 292 78
03/23/2014 17254 273 87
03/24/2014 15765 -- 136
03/25/2014 17878 2113 82
03/26/2014 18210 332 89
03/27/2014 18462 252 99
03/28/2014 18676 214 95
03/29/2014 18913 237 95
03/30/2014 19211 298 86
03/31/2014 19358 147 --
04/01/2014 19523 165 112
04/02/2014 19664 141 122
04/03/2014 19839 175 98
04/04/2014 20037 198 99
04/05/2014 20220 183 95
04/06/2014 20465 245 96
04/07/2014 20866 401 105
04/08/2014 21514 648 82
04/09/2014 22151 637 141
04/10/2014 23287 1136 75
04/11/2014 24321 1034 73
04/12/2014 25400 1079 94
04/13/2014 26622 1222 78
04/14/2014 27703 1081 84
04/15/2014 28904 1201 81
04/16/2014 -- -- --

Later | Latest

Warning! This data is preliminary and subject to revision.

Download Data Now Download Data Now | Show DON Map | Plot DON Data | 1 Month DON Data | Real-Time DON Data | DON Info